Time,TemperatureF,DewpointF,PressureIn,WindDirection,WindDirectionDegrees,WindSpeedMPH,WindSpeedGustMPH,Humidity,HourlyPrecipIn,Conditions,Clouds,dailyrainin,SolarRadiationWatts/m^2,SoftwareType,DateUTC
2013-02-05 00:03:00,21.0,19.0,-100.00,ESE,115,1.0,3.0,90,0.00,,,0.01,0.000000,,2013-02-05 05:03:00,
2013-02-05 00:32:00,21.0,19.0,-100.00,SSE,157,1.0,2.0,92,0.00,,,0.01,0.000000,,2013-02-05 05:32:00,
2013-02-05 00:42:00,21.0,19.0,-100.00,SSE,157,1.0,2.0,92,0.00,,,0.01,0.000000,,2013-02-05 05:42:00,
2013-02-05 00:52:00,21.0,19.0,-100.00,SSE,157,1.0,2.0,92,0.00,,,0.01,0.000000,,2013-02-05 05:52:00,
2013-02-05 01:02:00,21.0,19.0,-100.00,SSE,157,1.0,2.0,92,0.00,,,0.01,0.000000,,2013-02-05 06:02:00,
2013-02-05 01:32:00,21.0,20.0,-100.00,SSE,149,0.0,2.0,94,0.00,,,0.01,0.000000,,2013-02-05 06:32:00,
2013-02-05 01:42:00,21.0,20.0,-100.00,SSE,149,0.0,2.0,94,0.00,,,0.01,0.000000,,2013-02-05 06:42:00,
2013-02-05 01:52:00,21.0,20.0,-100.00,SSE,149,0.0,2.0,94,0.00,,,0.01,0.000000,,2013-02-05 06:52:00,
2013-02-05 02:01:00,21.0,20.0,-100.00,SSE,149,0.0,2.0,94,0.00,,,0.01,0.000000,,2013-02-05 07:01:00,
2013-02-05 02:32:00,21.0,20.0,-100.00,SE,134,2.0,3.0,95,0.00,,,0.01,0.000000,,2013-02-05 07:32:00,
2013-02-05 02:42:00,21.0,20.0,-100.00,SE,134,2.0,3.0,95,0.00,,,0.01,0.000000,,2013-02-05 07:42:00,
2013-02-05 02:52:00,21.0,20.0,-100.00,SE,134,2.0,3.0,95,0.00,,,0.01,0.000000,,2013-02-05 07:52:00,
2013-02-05 03:01:00,21.0,20.0,-100.00,SE,134,2.0,3.0,95,0.00,,,0.01,0.000000,,2013-02-05 08:01:00,
2013-02-05 03:32:00,21.0,20.0,-100.00,ENE,75,0.0,2.0,95,0.00,,,0.01,0.000000,,2013-02-05 08:32:00,
2013-02-05 03:42:00,21.0,20.0,-100.00,ENE,75,0.0,2.0,95,0.00,,,0.01,0.000000,,2013-02-05 08:42:00,
2013-02-05 03:52:00,21.0,20.0,-100.00,ENE,75,0.0,2.0,95,0.00,,,0.01,0.000000,,2013-02-05 08:52:00,
2013-02-05 04:02:00,21.0,20.0,-100.00,ENE,75,0.0,2.0,95,0.00,,,0.01,0.000000,,2013-02-05 09:02:00,
2013-02-05 04:32:00,21.0,20.0,-100.00,West,275,0.0,2.0,94,0.00,,,0.01,0.000000,,2013-02-05 09:32:00,
2013-02-05 04:42:00,21.0,20.0,-100.00,West,275,0.0,2.0,94,0.00,,,0.01,0.000000,,2013-02-05 09:42:00,
2013-02-05 04:52:00,21.0,20.0,-100.00,West,275,0.0,2.0,94,0.00,,,0.01,0.000000,,2013-02-05 09:52:00,
2013-02-05 05:02:00,21.0,20.0,-100.00,West,275,0.0,2.0,94,0.00,,,0.01,0.000000,,2013-02-05 10:02:00,
2013-02-05 05:32:00,21.0,20.0,-100.00,NW,310,0.0,2.0,95,0.00,,,0.01,0.000000,,2013-02-05 10:32:00,
2013-02-05 05:42:00,21.0,20.0,-100.00,NW,310,0.0,2.0,95,0.00,,,0.01,0.000000,,2013-02-05 10:42:00,
2013-02-05 05:52:00,21.0,20.0,-100.00,NW,310,0.0,2.0,95,0.00,,,0.01,0.000000,,2013-02-05 10:52:00,
2013-02-05 06:01:00,21.0,20.0,-100.00,NW,310,0.0,2.0,95,0.00,,,0.01,0.000000,,2013-02-05 11:01:00,
2013-02-05 06:32:00,21.0,20.0,-100.00,North,353,0.0,2.0,95,0.00,,,0.01,0.000000,,2013-02-05 11:32:00,
2013-02-05 06:42:00,21.0,20.0,-100.00,North,353,0.0,2.0,95,0.00,,,0.01,0.000000,,2013-02-05 11:42:00,
2013-02-05 06:52:00,21.0,20.0,-100.00,North,353,0.0,2.0,95,0.00,,,0.01,0.000000,,2013-02-05 11:52:00,
2013-02-05 07:02:00,21.0,20.0,-100.00,North,353,0.0,2.0,95,0.00,,,0.01,0.000000,,2013-02-05 12:02:00,
2013-02-05 07:32:00,21.0,20.0,-100.00,NNW,327,1.0,4.0,94,0.00,,,0.01,0.000000,,2013-02-05 12:32:00,
2013-02-05 07:42:00,21.0,20.0,-100.00,NNW,327,1.0,4.0,94,0.00,,,0.01,0.000000,,2013-02-05 12:42:00,
2013-02-05 07:52:00,21.0,20.0,-100.00,NNW,327,1.0,4.0,94,0.00,,,0.01,0.000000,,2013-02-05 12:52:00,
2013-02-05 08:02:00,21.0,20.0,-100.00,NNW,327,1.0,4.0,94,0.00,,,0.01,0.000000,,2013-02-05 13:02:00,
2013-02-05 08:32:00,22.0,20.0,-100.00,WNW,292,0.0,3.0,93,0.00,,,0.01,3.000000,,2013-02-05 13:32:00,
2013-02-05 08:42:00,22.0,20.0,-100.00,WNW,292,0.0,3.0,93,0.00,,,0.01,3.000000,,2013-02-05 13:42:00,
2013-02-05 08:52:00,22.0,20.0,-100.00,WNW,292,0.0,3.0,93,0.00,,,0.01,3.000000,,2013-02-05 13:52:00,
2013-02-05 09:01:00,22.0,20.0,-100.00,WNW,292,0.0,3.0,93,0.00,,,0.01,3.000000,,2013-02-05 14:01:00,
2013-02-05 09:32:00,24.0,21.0,-100.00,SW,225,2.0,4.0,89,0.00,,,0.01,15.000000,,2013-02-05 14:32:00,
2013-02-05 09:42:00,24.0,21.0,-100.00,SW,225,2.0,4.0,89,0.00,,,0.01,15.000000,,2013-02-05 14:42:00,
2013-02-05 09:52:00,24.0,21.0,-100.00,SW,225,2.0,4.0,89,0.00,,,0.01,15.000000,,2013-02-05 14:52:00,
2013-02-05 10:02:00,24.0,21.0,-100.00,SW,225,2.0,4.0,89,0.00,,,0.01,15.000000,,2013-02-05 15:02:00,
2013-02-05 10:32:00,26.0,20.0,-100.00,ESE,122,2.0,5.0,79,0.00,,,0.01,45.000000,,2013-02-05 15:32:00,
2013-02-05 10:42:00,26.0,20.0,-100.00,ESE,122,2.0,5.0,79,0.00,,,0.01,45.000000,,2013-02-05 15:42:00,
2013-02-05 10:52:00,26.0,20.0,-100.00,ESE,122,2.0,5.0,79,0.00,,,0.01,45.000000,,2013-02-05 15:52:00,
2013-02-05 11:01:00,26.0,20.0,-100.00,ESE,122,2.0,5.0,79,0.00,,,0.01,45.000000,,2013-02-05 16:01:00,
2013-02-05 11:33:00,26.0,20.0,-100.00,ESE,115,3.0,5.0,77,0.00,,,-99.99,49.000000,,2013-02-05 16:33:00,
2013-02-05 11:42:00,26.0,20.0,-100.00,ESE,115,3.0,5.0,77,0.00,,,-99.99,49.000000,,2013-02-05 16:42:00,
2013-02-05 11:52:00,26.0,20.0,-100.00,ESE,115,3.0,5.0,77,0.00,,,-99.99,49.000000,,2013-02-05 16:52:00,
2013-02-05 12:01:00,26.0,20.0,-100.00,ESE,115,3.0,5.0,77,0.00,,,-99.99,49.000000,,2013-02-05 17:01:00,
2013-02-05 12:33:00,28.0,23.0,-100.00,SE,141,2.0,7.0,81,0.00,,,-99.99,50.000000,,2013-02-05 17:33:00,
2013-02-05 12:42:00,28.0,23.0,-100.00,SE,141,2.0,7.0,81,0.00,,,-99.99,50.000000,,2013-02-05 17:42:00,
2013-02-05 12:52:00,28.0,23.0,-100.00,SE,141,2.0,7.0,81,0.00,,,-99.99,50.000000,,2013-02-05 17:52:00,
2013-02-05 13:02:00,28.0,23.0,-100.00,SE,141,2.0,7.0,81,0.00,,,-99.99,50.000000,,2013-02-05 18:02:00,
2013-02-05 13:32:00,26.0,20.0,-100.00,ESE,103,3.0,6.0,77,0.00,,,0.00,58.000000,,2013-02-05 18:32:00,
2013-02-05 13:42:00,26.0,20.0,-100.00,ESE,103,3.0,6.0,77,0.00,,,0.00,58.000000,,2013-02-05 18:42:00,
2013-02-05 13:52:00,26.0,20.0,-100.00,ESE,103,3.0,6.0,77,0.00,,,0.00,58.000000,,2013-02-05 18:52:00,
2013-02-05 14:02:00,26.0,20.0,-100.00,ESE,103,3.0,6.0,77,0.00,,,0.00,58.000000,,2013-02-05 19:02:00,
2013-02-05 14:32:00,27.0,22.0,-100.00,SE,134,3.0,4.0,80,0.00,,,0.00,39.000000,,2013-02-05 19:32:00,
2013-02-05 14:42:00,27.0,22.0,-100.00,SE,134,3.0,4.0,80,0.00,,,0.00,39.000000,,2013-02-05 19:42:00,
2013-02-05 14:52:00,27.0,22.0,-100.00,SE,134,3.0,4.0,80,0.00,,,0.00,39.000000,,2013-02-05 19:52:00,
2013-02-05 15:02:00,27.0,22.0,-100.00,SE,134,3.0,4.0,80,0.00,,,0.00,39.000000,,2013-02-05 20:02:00,
2013-02-05 15:32:00,26.0,22.0,-100.00,SE,129,3.0,7.0,84,0.00,,,-99.99,26.000000,,2013-02-05 20:32:00,
2013-02-05 15:42:00,26.0,22.0,-100.00,SE,129,3.0,7.0,84,0.00,,,-99.99,26.000000,,2013-02-05 20:42:00,
2013-02-05 15:52:00,26.0,22.0,-100.00,SE,129,3.0,7.0,84,0.00,,,-99.99,26.000000,,2013-02-05 20:52:00,
2013-02-05 16:02:00,26.0,22.0,-100.00,SE,129,3.0,7.0,84,0.00,,,-99.99,26.000000,,2013-02-05 21:02:00,
2013-02-05 16:32:00,25.0,22.0,-100.00,SE,128,2.0,5.0,89,0.00,,,0.00,14.000000,,2013-02-05 21:32:00,
2013-02-05 16:42:00,25.0,22.0,-100.00,SE,128,2.0,5.0,89,0.00,,,0.00,14.000000,,2013-02-05 21:42:00,
2013-02-05 16:52:00,25.0,22.0,-100.00,SE,128,2.0,5.0,89,0.00,,,0.00,14.000000,,2013-02-05 21:52:00,
2013-02-05 17:02:00,25.0,22.0,-100.00,SE,128,2.0,5.0,89,0.00,,,0.00,14.000000,,2013-02-05 22:02:00,
2013-02-05 17:32:00,25.0,23.0,-100.00,ESE,120,1.0,4.0,91,0.00,,,0.00,5.000000,,2013-02-05 22:32:00,
2013-02-05 17:42:00,25.0,23.0,-100.00,ESE,120,1.0,4.0,91,0.00,,,0.00,5.000000,,2013-02-05 22:42:00,
2013-02-05 17:52:00,25.0,23.0,-100.00,ESE,120,1.0,4.0,91,0.00,,,0.00,5.000000,,2013-02-05 22:52:00,
2013-02-05 18:02:00,25.0,23.0,-100.00,ESE,120,1.0,4.0,91,0.00,,,0.00,5.000000,,2013-02-05 23:02:00,
2013-02-05 18:33:00,24.0,22.0,-100.00,East,86,1.0,3.0,93,0.00,,,0.00,0.000000,,2013-02-05 23:33:00,
2013-02-05 18:42:00,24.0,22.0,-100.00,East,86,1.0,3.0,93,0.00,,,0.00,0.000000,,2013-02-05 23:42:00,
2013-02-05 18:53:00,24.0,22.0,-100.00,East,86,1.0,3.0,93,0.00,,,0.00,0.000000,,2013-02-05 23:53:00,
2013-02-05 19:02:00,24.0,22.0,-100.00,East,86,1.0,3.0,93,0.00,,,0.00,0.000000,,2013-02-06 00:02:00,
2013-02-05 19:32:00,25.0,24.0,-100.00,ENE,64,1.0,3.0,94,0.00,,,0.00,0.000000,,2013-02-06 00:32:00,
2013-02-05 19:42:00,25.0,24.0,-100.00,ENE,64,1.0,3.0,94,0.00,,,0.00,0.000000,,2013-02-06 00:42:00,
2013-02-05 19:52:00,25.0,24.0,-100.00,ENE,64,1.0,3.0,94,0.00,,,0.00,0.000000,,2013-02-06 00:52:00,
2013-02-05 20:02:00,25.0,24.0,-100.00,ENE,64,1.0,3.0,94,0.00,,,0.00,0.000000,,2013-02-06 01:02:00,
2013-02-05 20:33:00,25.0,24.0,-100.00,NW,317,0.0,3.0,96,0.00,,,0.00,0.000000,,2013-02-06 01:33:00,
2013-02-05 20:42:00,25.0,24.0,-100.00,NW,317,0.0,3.0,96,0.00,,,0.00,0.000000,,2013-02-06 01:42:00,
2013-02-05 20:53:00,25.0,24.0,-100.00,NW,317,0.0,3.0,96,0.00,,,0.00,0.000000,,2013-02-06 01:53:00,
2013-02-05 21:02:00,25.0,24.0,-100.00,NW,317,0.0,3.0,96,0.00,,,0.00,0.000000,,2013-02-06 02:02:00,
2013-02-05 21:32:00,25.0,24.0,-100.00,WNW,293,1.0,3.0,97,0.00,,,0.00,0.000000,,2013-02-06 02:32:00,
2013-02-05 21:42:00,25.0,24.0,-100.00,WNW,293,1.0,3.0,97,0.00,,,0.00,0.000000,,2013-02-06 02:42:00,
2013-02-05 21:53:00,25.0,24.0,-100.00,WNW,293,1.0,3.0,97,0.00,,,0.00,0.000000,,2013-02-06 02:53:00,
2013-02-05 22:03:00,25.0,24.0,-100.00,WNW,293,1.0,3.0,97,0.00,,,0.00,0.000000,,2013-02-06 03:03:00,
2013-02-05 22:33:00,26.0,25.0,-100.00,WNW,290,2.0,4.0,97,0.00,,,0.00,0.000000,,2013-02-06 03:33:00,
2013-02-05 22:42:00,26.0,25.0,-100.00,WNW,290,2.0,4.0,97,0.00,,,0.00,0.000000,,2013-02-06 03:42:00,
2013-02-05 22:53:00,26.0,25.0,-100.00,WNW,290,2.0,4.0,97,0.00,,,0.00,0.000000,,2013-02-06 03:53:00,
2013-02-05 23:02:00,26.0,25.0,-100.00,WNW,290,2.0,4.0,97,0.00,,,0.00,0.000000,,2013-02-06 04:02:00,
2013-02-05 23:32:00,25.0,23.0,-100.00,WNW,288,3.0,10.0,91,0.00,,,0.00,0.000000,,2013-02-06 04:32:00,
2013-02-05 23:42:00,25.0,23.0,-100.00,WNW,288,3.0,10.0,91,0.00,,,0.00,0.000000,,2013-02-06 04:42:00,
2013-02-05 23:52:00,25.0,23.0,-100.00,WNW,288,3.0,10.0,91,0.00,,,0.00,0.000000,,2013-02-06 04:52:00,